date,time,SUV Intensity [MED/Hr],UV Index,Daily total [MED],Since Last [MED]
07/07/2022,00:10:06,0.000,0.0,0.0,0.0
07/07/2022,00:11:06,0.000,0.0,0.0,0.0
07/07/2022,00:12:06,-0.000,0.0,0.0,0.0
07/07/2022,00:13:05,-0.001,0.0,0.0,0.0
07/07/2022,00:14:15,0.000,0.0,0.0,0.0
07/07/2022,00:15:06,0.000,0.0,0.0,0.0
07/07/2022,00:16:06,-0.001,0.0,0.0,0.0
07/07/2022,00:17:15,0.001,0.0,0.0,0.0
07/07/2022,00:18:06,0.000,0.0,0.0,0.0
07/07/2022,00:19:06,0.000,0.0,0.0,0.0
07/07/2022,00:20:06,0.000,0.0,0.0,0.0
07/07/2022,00:21:05,-0.000,0.0,0.0,0.0
07/07/2022,00:22:05,-0.001,0.0,0.0,0.0
07/07/2022,00:23:06,-0.001,0.0,0.0,0.0
07/07/2022,00:24:06,0.000,0.0,0.0,0.0
07/07/2022,00:25:06,0.000,0.0,0.0,0.0
07/07/2022,00:26:06,0.000,0.0,0.0,0.0
07/07/2022,00:27:06,0.000,0.0,0.0,0.0
07/07/2022,00:28:06,0.000,0.0,0.0,0.0
07/07/2022,00:29:06,0.000,0.0,0.0,0.0
07/07/2022,00:30:06,0.000,0.0,0.0,0.0
07/07/2022,00:31:06,0.000,0.0,0.0,0.0
07/07/2022,00:32:14,0.000,0.0,0.0,0.0
07/07/2022,00:33:06,0.000,0.0,0.0,0.0
07/07/2022,00:34:06,0.000,0.0,0.0,0.0
07/07/2022,00:35:06,0.000,0.0,0.0,0.0
07/07/2022,00:36:06,0.000,0.0,0.0,0.0
07/07/2022,00:37:05,0.000,0.0,0.0,0.0
07/07/2022,00:38:06,0.000,0.0,0.0,0.0
07/07/2022,00:39:06,-0.001,0.0,0.0,0.0
07/07/2022,00:40:15,0.000,0.0,0.0,0.0
07/07/2022,00:41:06,0.000,0.0,0.0,0.0
07/07/2022,00:42:14,0.000,0.0,0.0,0.0
07/07/2022,00:44:07,0.000,0.0,0.0,0.0
07/07/2022,00:45:06,0.000,0.0,0.0,0.0
07/07/2022,00:46:06,0.000,0.0,0.0,0.0
07/07/2022,00:47:06,0.000,0.0,0.0,0.0
07/07/2022,00:48:06,0.000,0.0,0.0,0.0
07/07/2022,00:49:06,0.000,0.0,0.0,0.0
07/07/2022,00:50:06,0.000,0.0,0.0,0.0
07/07/2022,00:51:06,0.000,0.0,0.0,0.0
07/07/2022,00:52:06,0.000,0.0,0.0,0.0
07/07/2022,00:53:05,0.000,0.0,0.0,0.0
07/07/2022,00:54:05,0.000,0.0,0.0,0.0
07/07/2022,00:55:14,0.000,0.0,0.0,0.0
07/07/2022,00:56:07,0.000,0.0,0.0,0.0
07/07/2022,00:57:14,0.000,0.0,0.0,0.0
07/07/2022,00:58:06,0.000,0.0,0.0,0.0
07/07/2022,00:59:06,0.000,0.0,0.0,0.0
07/07/2022,01:00:06,0.000,0.0,0.0,0.0
07/07/2022,01:01:06,0.000,0.0,0.0,0.0
07/07/2022,01:02:06,0.000,0.0,0.0,0.0
07/07/2022,01:03:05,0.000,0.0,0.0,0.0
07/07/2022,01:04:06,0.000,0.0,0.0,0.0
07/07/2022,01:05:06,0.000,0.0,0.0,0.0
07/07/2022,01:06:05,0.000,0.0,0.0,0.0
07/07/2022,01:07:05,0.000,0.0,0.0,0.0
07/07/2022,01:08:06,0.000,0.0,0.0,0.0
07/07/2022,01:09:06,0.000,0.0,0.0,0.0
07/07/2022,01:10:06,0.000,0.0,0.0,0.0
07/07/2022,01:11:06,0.000,0.0,0.0,0.0
07/07/2022,01:12:06,0.000,0.0,0.0,0.0
07/07/2022,01:13:08,0.000,0.0,0.0,0.0
07/07/2022,01:14:06,0.000,0.0,0.0,0.0
07/07/2022,01:15:06,0.000,0.0,0.0,0.0
07/07/2022,01:16:14,0.000,0.0,0.0,0.0
07/07/2022,01:17:14,0.000,0.0,0.0,0.0
07/07/2022,01:18:15,0.000,0.0,0.0,0.0
07/07/2022,01:19:14,0.000,0.0,0.0,0.0
07/07/2022,01:20:06,0.000,0.0,0.0,0.0
07/07/2022,01:21:06,0.000,0.0,0.0,0.0
07/07/2022,01:22:06,0.000,0.0,0.0,0.0
07/07/2022,01:23:06,0.001,0.0,0.0,0.0
07/07/2022,01:24:06,0.001,0.0,0.0,0.0
07/07/2022,01:25:05,0.001,0.0,0.0,0.0
07/07/2022,01:26:14,0.002,0.0,0.0,0.0
07/07/2022,01:27:05,0.001,0.0,0.0,0.0
07/07/2022,01:28:06,0.000,0.0,0.0,0.0
07/07/2022,01:29:06,0.000,0.0,0.0,0.0
07/07/2022,01:30:06,0.001,0.0,0.0,0.0
07/07/2022,01:31:06,0.001,0.0,0.0,0.0
07/07/2022,01:32:06,0.001,0.0,0.0,0.0
07/07/2022,01:33:05,0.001,0.0,0.0,0.0
07/07/2022,01:34:06,0.001,0.0,0.0,0.0
07/07/2022,01:35:06,0.000,0.0,0.0,0.0
07/07/2022,01:36:06,0.001,0.0,0.0,0.0
07/07/2022,01:37:06,0.001,0.0,0.0,0.0
07/07/2022,01:38:06,0.001,0.0,0.0,0.0
07/07/2022,01:39:06,0.001,0.0,0.0,0.0
07/07/2022,01:40:06,0.001,0.0,0.0,0.0
07/07/2022,01:41:06,0.001,0.0,0.0,0.0
07/07/2022,01:42:12,0.001,0.0,0.0,0.0
07/07/2022,01:43:05,0.001,0.0,0.0,0.0
07/07/2022,01:44:06,0.000,0.0,0.0,0.0
07/07/2022,01:45:14,0.001,0.0,0.0,0.0
07/07/2022,01:46:06,0.000,0.0,0.0,0.0
07/07/2022,01:47:06,0.000,0.0,0.0,0.0
07/07/2022,01:48:06,0.001,0.0,0.0,0.0
07/07/2022,01:49:06,0.001,0.0,0.0,0.0
07/07/2022,01:50:06,0.001,0.0,0.0,0.0
07/07/2022,01:51:06,0.001,0.0,0.0,0.0
07/07/2022,01:52:06,0.000,0.0,0.0,0.0
07/07/2022,01:53:06,0.001,0.0,0.0,0.0
07/07/2022,01:54:07,0.000,0.0,0.0,0.0
07/07/2022,01:55:14,0.000,0.0,0.0,0.0
07/07/2022,01:56:06,0.001,0.0,0.0,0.0
07/07/2022,01:57:05,0.000,0.0,0.0,0.0
07/07/2022,01:57:57,0.001,0.0,0.0,0.0
07/07/2022,01:59:07,0.001,0.0,0.0,0.0
07/07/2022,02:00:06,0.001,0.0,0.0,0.0
07/07/2022,02:01:06,0.001,0.0,0.0,0.0
07/07/2022,02:02:06,0.001,0.0,0.0,0.0
07/07/2022,02:03:07,0.001,0.0,0.0,0.0
07/07/2022,02:04:06,0.001,0.0,0.0,0.0
07/07/2022,02:05:06,0.001,0.0,0.0,0.0
07/07/2022,02:06:06,0.001,0.0,0.0,0.0
07/07/2022,02:07:06,0.001,0.0,0.0,0.0
07/07/2022,02:08:06,0.001,0.0,0.0,0.0
07/07/2022,02:09:06,0.001,0.0,0.0,0.0
07/07/2022,02:10:06,0.000,0.0,0.0,0.0
07/07/2022,02:10:58,0.001,0.0,0.0,0.0
07/07/2022,02:12:06,0.001,0.0,0.0,0.0
07/07/2022,02:13:06,0.000,0.0,0.0,0.0
07/07/2022,02:14:14,0.001,0.0,0.0,0.0
07/07/2022,02:15:06,0.000,0.0,0.0,0.0
07/07/2022,02:16:06,0.000,0.0,0.0,0.0
07/07/2022,02:17:15,0.001,0.0,0.0,0.0
07/07/2022,02:18:06,0.000,0.0,0.0,0.0
07/07/2022,02:19:06,0.000,0.0,0.0,0.0
07/07/2022,02:20:06,0.000,0.0,0.0,0.0
07/07/2022,02:21:06,0.000,0.0,0.0,0.0
07/07/2022,02:22:06,0.000,0.0,0.0,0.0
07/07/2022,02:23:06,0.000,0.0,0.0,0.0
07/07/2022,02:24:06,0.000,0.0,0.0,0.0
07/07/2022,02:24:57,0.000,0.0,0.0,0.0
07/07/2022,02:26:07,0.000,0.0,0.0,0.0
07/07/2022,02:27:06,0.000,0.0,0.0,0.0
07/07/2022,02:28:06,0.000,0.0,0.0,0.0
07/07/2022,02:29:06,0.000,0.0,0.0,0.0
07/07/2022,02:30:06,0.000,0.0,0.0,0.0
07/07/2022,02:31:06,0.000,0.0,0.0,0.0
07/07/2022,02:32:06,0.000,0.0,0.0,0.0
07/07/2022,02:33:06,0.001,0.0,0.0,0.0
07/07/2022,02:34:06,0.000,0.0,0.0,0.0
07/07/2022,02:35:06,0.001,0.0,0.0,0.0
07/07/2022,02:36:06,0.000,0.0,0.0,0.0
07/07/2022,02:37:06,0.000,0.0,0.0,0.0
07/07/2022,02:38:06,0.000,0.0,0.0,0.0
07/07/2022,02:39:06,0.000,0.0,0.0,0.0
07/07/2022,02:40:06,0.000,0.0,0.0,0.0
07/07/2022,02:41:06,0.000,0.0,0.0,0.0
07/07/2022,02:42:06,0.000,0.0,0.0,0.0
07/07/2022,02:43:06,0.000,0.0,0.0,0.0
07/07/2022,02:44:06,0.000,0.0,0.0,0.0
07/07/2022,02:45:06,0.000,0.0,0.0,0.0
07/07/2022,02:46:07,0.000,0.0,0.0,0.0
07/07/2022,02:47:06,0.000,0.0,0.0,0.0
07/07/2022,02:48:06,0.000,0.0,0.0,0.0
07/07/2022,02:49:06,0.000,0.0,0.0,0.0
07/07/2022,02:50:06,0.000,0.0,0.0,0.0
07/07/2022,02:51:06,0.000,0.0,0.0,0.0
07/07/2022,02:52:06,0.001,0.0,0.0,0.0
07/07/2022,02:53:06,0.001,0.0,0.0,0.0
07/07/2022,02:54:06,0.000,0.0,0.0,0.0
07/07/2022,02:55:08,0.000,0.0,0.0,0.0
07/07/2022,02:56:06,0.000,0.0,0.0,0.0
07/07/2022,02:57:06,0.000,0.0,0.0,0.0
07/07/2022,02:58:15,0.000,0.0,0.0,0.0
07/07/2022,02:59:06,0.001,0.0,0.0,0.0
07/07/2022,03:00:06,0.000,0.0,0.0,0.0
07/07/2022,03:01:06,0.000,0.0,0.0,0.0
07/07/2022,03:02:06,0.000,0.0,0.0,0.0
07/07/2022,03:03:06,0.000,0.0,0.0,0.0
07/07/2022,03:04:06,0.000,0.0,0.0,0.0
07/07/2022,03:05:06,0.000,0.0,0.0,0.0
07/07/2022,03:06:06,0.000,0.0,0.0,0.0
07/07/2022,03:07:06,0.000,0.0,0.0,0.0
07/07/2022,03:08:15,0.000,0.0,0.0,0.0
07/07/2022,03:09:06,0.000,0.0,0.0,0.0
07/07/2022,03:10:06,0.000,0.0,0.0,0.0
07/07/2022,03:11:06,0.001,0.0,0.0,0.0
07/07/2022,03:12:07,0.000,0.0,0.0,0.0
07/07/2022,03:13:06,0.001,0.0,0.0,0.0
07/07/2022,03:14:14,0.000,0.0,0.0,0.0
07/07/2022,03:15:06,0.001,0.0,0.0,0.0
07/07/2022,03:16:06,0.000,0.0,0.0,0.0
07/07/2022,03:17:06,0.001,0.0,0.0,0.0
07/07/2022,03:18:06,0.000,0.0,0.0,0.0
07/07/2022,03:19:07,0.000,0.0,0.0,0.0
07/07/2022,03:20:06,0.000,0.0,0.0,0.0
07/07/2022,03:21:06,0.000,0.0,0.0,0.0
07/07/2022,03:22:06,0.000,0.0,0.0,0.0
07/07/2022,03:23:06,0.000,0.0,0.0,0.0
07/07/2022,03:24:07,0.000,0.0,0.0,0.0
07/07/2022,03:25:06,0.001,0.0,0.0,0.0
07/07/2022,03:26:06,0.001,0.0,0.0,0.0
07/07/2022,03:27:15,0.001,0.0,0.0,0.0
07/07/2022,03:28:06,0.000,0.0,0.0,0.0
07/07/2022,03:29:06,0.001,0.0,0.0,0.0
07/07/2022,03:30:08,0.000,0.0,0.0,0.0
07/07/2022,03:31:06,0.000,0.0,0.0,0.0
07/07/2022,03:32:07,0.001,0.0,0.0,0.0
07/07/2022,03:33:06,0.001,0.0,0.0,0.0
07/07/2022,03:34:06,0.001,0.0,0.0,0.0
07/07/2022,03:35:06,0.001,0.0,0.0,0.0
07/07/2022,03:36:06,0.001,0.0,0.0,0.0
07/07/2022,03:37:15,0.001,0.0,0.0,0.0
07/07/2022,03:38:06,0.001,0.0,0.0,0.0
07/07/2022,03:39:06,0.000,0.0,0.0,0.0
07/07/2022,03:40:06,0.000,0.0,0.0,0.0
07/07/2022,03:41:06,0.002,0.0,0.0,0.0
07/07/2022,03:42:06,0.001,0.0,0.0,0.0
07/07/2022,03:43:15,0.001,0.0,0.0,0.0
07/07/2022,03:44:06,0.000,0.0,0.0,0.0
07/07/2022,03:45:06,0.001,0.0,0.0,0.0
07/07/2022,03:46:06,0.001,0.0,0.0,0.0
07/07/2022,03:47:06,0.001,0.0,0.0,0.0
07/07/2022,03:48:06,0.001,0.0,0.0,0.0
07/07/2022,03:49:06,0.001,0.0,0.0,0.0
07/07/2022,03:50:06,0.002,0.0,0.0,0.0
07/07/2022,03:51:06,0.001,0.0,0.0,0.0
07/07/2022,03:52:06,0.001,0.0,0.0,0.0
07/07/2022,03:53:14,0.000,0.0,0.0,0.0
07/07/2022,03:54:06,0.001,0.0,0.0,0.0
07/07/2022,03:55:07,0.001,0.0,0.0,0.0
07/07/2022,03:56:06,0.002,0.0,0.0,0.0
07/07/2022,03:57:06,0.001,0.0,0.0,0.0
07/07/2022,03:58:06,0.001,0.0,0.0,0.0
07/07/2022,03:59:06,0.001,0.0,0.0,0.0
07/07/2022,04:00:07,0.001,0.0,0.0,0.0
07/07/2022,04:01:06,0.001,0.0,0.0,0.0
07/07/2022,04:02:06,0.001,0.0,0.0,0.0
07/07/2022,04:03:06,0.001,0.0,0.0,0.0
07/07/2022,04:04:06,0.002,0.0,0.0,0.0
07/07/2022,04:04:57,0.001,0.0,0.0,0.0
07/07/2022,04:06:07,0.002,0.0,0.0,0.0
07/07/2022,04:07:07,0.003,0.0,0.0,0.0
07/07/2022,04:08:06,0.002,0.0,0.0,0.0
07/07/2022,04:09:07,0.002,0.0,0.0,0.0
07/07/2022,04:10:06,0.002,0.0,0.0,0.0
07/07/2022,04:11:06,0.002,0.0,0.0,0.0
07/07/2022,04:12:06,0.001,0.0,0.0,0.0
07/07/2022,04:13:06,0.002,0.0,0.0,0.0
07/07/2022,04:14:06,0.003,0.0,0.0,0.0
07/07/2022,04:15:06,0.003,0.0,0.0,0.0
07/07/2022,04:16:06,0.002,0.0,0.0,0.0
07/07/2022,04:17:06,0.003,0.0,0.0,0.0
07/07/2022,04:18:06,0.004,0.0,0.0,0.0
07/07/2022,04:19:06,0.002,0.0,0.0,0.0
07/07/2022,04:20:06,0.003,0.0,0.0,0.0
07/07/2022,04:21:06,0.003,0.0,0.0,0.0
07/07/2022,04:22:07,0.003,0.0,0.0,0.0
07/07/2022,04:23:06,0.002,0.0,0.0,0.0
07/07/2022,04:24:07,0.005,0.0,0.0,0.0
07/07/2022,04:25:06,0.003,0.0,0.0,0.0
07/07/2022,04:26:06,0.004,0.0,0.0,0.0
07/07/2022,04:27:07,0.003,0.0,0.0,0.0
07/07/2022,04:28:06,0.003,0.0,0.0,0.0
07/07/2022,04:29:06,0.003,0.0,0.0,0.0
07/07/2022,04:30:06,0.003,0.0,0.0,0.0
07/07/2022,04:31:06,0.004,0.0,0.0,0.0
07/07/2022,04:32:06,0.004,0.0,0.0,0.0
07/07/2022,04:33:06,0.005,0.0,0.0,0.0
07/07/2022,04:34:06,0.005,0.0,0.0,0.0
07/07/2022,04:35:06,0.005,0.0,0.0,0.0
07/07/2022,04:36:07,0.006,0.0,0.0,0.0
07/07/2022,04:36:58,0.007,0.0,0.0,0.0
07/07/2022,04:37:59,0.007,0.0,0.0,0.0
07/07/2022,04:39:08,0.008,0.0,0.0,0.0
07/07/2022,04:40:06,0.007,0.0,0.0,0.0
07/07/2022,04:41:07,0.007,0.0,0.001,0.001
07/07/2022,04:42:06,0.007,0.0,0.001,0.0
07/07/2022,04:43:06,0.007,0.0,0.001,0.0
07/07/2022,04:44:06,0.008,0.0,0.001,0.0
07/07/2022,04:45:07,0.011,0.0,0.001,0.0
07/07/2022,04:46:06,0.012,0.0,0.001,0.0
07/07/2022,04:47:06,0.012,0.0,0.001,0.0
07/07/2022,04:48:06,0.012,0.0,0.002,0.001
07/07/2022,04:49:06,0.011,0.0,0.002,0.0
07/07/2022,04:50:06,0.010,0.0,0.002,0.0
07/07/2022,04:51:06,0.010,0.0,0.002,0.0
07/07/2022,04:52:06,0.010,0.0,0.002,0.0
07/07/2022,04:53:14,0.011,0.0,0.003,0.001
07/07/2022,04:54:06,0.010,0.0,0.003,0.0
07/07/2022,04:55:06,0.010,0.0,0.003,0.0
07/07/2022,04:56:08,0.011,0.0,0.003,0.0
07/07/2022,04:57:07,0.012,0.0,0.003,0.0
07/07/2022,04:58:07,0.013,0.0,0.003,0.0
07/07/2022,04:59:06,0.013,0.0,0.004,0.001
07/07/2022,05:00:06,0.013,0.0,0.004,0.0
07/07/2022,05:01:19,0.012,0.0,0.004,0.0
07/07/2022,05:03:07,0.013,0.0,0.004,0.0
07/07/2022,05:04:07,0.014,0.0,0.005,0.001
07/07/2022,05:05:07,0.015,0.0,0.005,0.0
07/07/2022,05:06:14,0.016,0.0,0.005,0.0
07/07/2022,05:08:07,0.015,0.0,0.006,0.001
07/07/2022,05:09:06,0.015,0.0,0.006,0.0
07/07/2022,05:10:07,0.014,0.0,0.006,0.0
07/07/2022,05:11:06,0.015,0.0,0.006,0.0
07/07/2022,05:12:06,0.016,0.0,0.007,0.001
07/07/2022,05:13:06,0.016,0.0,0.007,0.0
07/07/2022,05:14:06,0.016,0.0,0.007,0.0
07/07/2022,05:15:07,0.017,0.0,0.008,0.001
07/07/2022,05:16:06,0.016,0.0,0.008,0.0
07/07/2022,05:17:07,0.016,0.0,0.008,0.0
07/07/2022,05:18:06,0.019,0.0,0.008,0.0
07/07/2022,05:19:07,0.021,0.0,0.009,0.001
07/07/2022,05:20:06,0.022,0.0,0.009,0.0
07/07/2022,05:21:07,0.026,0.0,0.009,0.0
07/07/2022,05:22:06,0.030,0.0,0.01,0.001
07/07/2022,05:23:06,0.030,0.0,0.01,0.0
07/07/2022,05:24:06,0.031,0.0,0.011,0.001
07/07/2022,05:25:15,0.034,0.0,0.011,0.0
07/07/2022,05:26:06,0.036,0.0,0.012,0.001
07/07/2022,05:27:07,0.036,0.0,0.013,0.001
07/07/2022,05:28:06,0.039,0.0,0.013,0.0
07/07/2022,05:29:06,0.041,0.0,0.014,0.001
07/07/2022,05:30:06,0.044,0.0,0.015,0.001
07/07/2022,05:31:06,0.044,0.0,0.015,0.0
07/07/2022,05:32:06,0.044,0.0,0.016,0.001
07/07/2022,05:33:07,0.045,0.0,0.017,0.001
07/07/2022,05:34:07,0.044,0.0,0.018,0.001
07/07/2022,05:35:06,0.047,0.0,0.018,0.0
07/07/2022,05:36:07,0.043,0.0,0.019,0.001
07/07/2022,05:37:06,0.034,0.0,0.02,0.001
07/07/2022,05:38:15,0.036,0.0,0.02,0.0
07/07/2022,05:39:05,0.037,0.0,0.021,0.001
07/07/2022,05:40:07,0.045,0.0,0.022,0.001
07/07/2022,05:41:06,0.042,0.0,0.022,0.0
07/07/2022,05:42:06,0.044,0.0,0.023,0.001
07/07/2022,05:43:06,0.039,0.0,0.024,0.001
07/07/2022,05:44:07,0.038,0.0,0.024,0.0
07/07/2022,05:45:06,0.034,0.0,0.025,0.001
07/07/2022,05:46:06,0.034,0.0,0.025,0.0
07/07/2022,05:47:07,0.034,0.0,0.026,0.001
07/07/2022,05:48:06,0.036,0.0,0.027,0.001
07/07/2022,05:49:06,0.033,0.0,0.027,0.0
07/07/2022,05:50:06,0.030,0.0,0.028,0.001
07/07/2022,05:51:07,0.030,0.0,0.028,0.0
07/07/2022,05:52:06,0.031,0.0,0.029,0.001
07/07/2022,05:53:07,0.035,0.0,0.029,0.0
07/07/2022,05:54:07,0.038,0.0,0.03,0.001
07/07/2022,05:55:07,0.038,0.0,0.031,0.001
07/07/2022,05:56:06,0.040,0.0,0.031,0.0
07/07/2022,05:57:14,0.043,0.0,0.032,0.001
07/07/2022,05:58:06,0.041,0.0,0.033,0.001
07/07/2022,05:59:06,0.038,0.0,0.033,0.0
07/07/2022,06:00:07,0.038,0.0,0.034,0.001
07/07/2022,06:01:07,0.038,0.0,0.034,0.0
07/07/2022,06:02:06,0.041,0.0,0.035,0.001
07/07/2022,06:03:07,0.043,0.0,0.036,0.001
07/07/2022,06:04:06,0.048,0.0,0.037,0.001
07/07/2022,06:05:06,0.052,0.0,0.037,0.0
07/07/2022,06:06:14,0.055,0.0,0.038,0.001
07/07/2022,06:07:06,0.055,0.0,0.039,0.001
07/07/2022,06:08:07,0.055,0.0,0.04,0.001
07/07/2022,06:09:07,0.056,0.0,0.041,0.001
07/07/2022,06:10:15,0.057,0.0,0.042,0.001
07/07/2022,06:11:06,0.062,0.0,0.043,0.001
07/07/2022,06:12:07,0.067,0.0,0.044,0.001
07/07/2022,06:13:06,0.067,0.0,0.045,0.001
07/07/2022,06:14:06,0.065,0.0,0.046,0.001
07/07/2022,06:15:06,0.062,0.0,0.047,0.001
07/07/2022,06:16:07,0.063,0.0,0.048,0.001
07/07/2022,06:17:06,0.068,0.0,0.049,0.001
07/07/2022,06:18:07,0.071,0.0,0.051,0.002
07/07/2022,06:19:06,0.072,0.0,0.052,0.001
07/07/2022,06:20:06,0.071,0.0,0.053,0.001
07/07/2022,06:21:06,0.074,0.0,0.054,0.001
07/07/2022,06:22:07,0.079,0.0,0.055,0.001
07/07/2022,06:23:06,0.086,0.0,0.057,0.002
07/07/2022,06:24:06,0.091,0.0,0.058,0.001
07/07/2022,06:25:06,0.095,0.0,0.06,0.002
07/07/2022,06:26:06,0.095,0.0,0.062,0.002
07/07/2022,06:27:06,0.096,0.0,0.063,0.001
07/07/2022,06:28:07,0.095,0.0,0.065,0.002
07/07/2022,06:29:15,0.094,0.0,0.066,0.001
07/07/2022,06:30:15,0.095,0.0,0.068,0.002
07/07/2022,06:31:07,0.091,0.0,0.069,0.001
07/07/2022,06:32:06,0.090,0.0,0.071,0.002
07/07/2022,06:33:07,0.091,0.0,0.072,0.001
07/07/2022,06:34:06,0.093,0.0,0.074,0.002
07/07/2022,06:35:07,0.096,0.0,0.076,0.002
07/07/2022,06:36:06,0.099,0.0,0.077,0.001
07/07/2022,06:37:07,0.101,0.0,0.079,0.002
07/07/2022,06:38:06,0.102,0.0,0.081,0.002
07/07/2022,06:39:07,0.111,0.0,0.082,0.001
07/07/2022,06:40:15,0.115,0.0,0.084,0.002
07/07/2022,06:42:08,0.113,0.0,0.088,0.004
07/07/2022,06:43:06,0.116,0.0,0.09,0.002
07/07/2022,06:44:07,0.120,0.0,0.092,0.002
07/07/2022,06:45:07,0.122,0.0,0.094,0.002
07/07/2022,06:46:06,0.122,0.0,0.096,0.002
07/07/2022,06:47:06,0.123,0.0,0.098,0.002
07/07/2022,06:48:07,0.122,0.0,0.1,0.002
07/07/2022,06:49:06,0.122,0.0,0.102,0.002
07/07/2022,06:50:07,0.124,0.0,0.104,0.002
07/07/2022,06:51:06,0.124,0.0,0.106,0.002
07/07/2022,06:52:07,0.128,0.0,0.108,0.002
07/07/2022,06:53:06,0.134,0.0,0.11,0.002
07/07/2022,06:54:06,0.140,0.0,0.113,0.003
07/07/2022,06:55:06,0.145,0.0,0.115,0.002
07/07/2022,06:56:15,0.151,0.0,0.118,0.003
07/07/2022,06:58:07,0.172,0.0,0.123,0.005
07/07/2022,06:59:07,0.184,0.0,0.126,0.003
07/07/2022,07:00:06,0.188,0.0,0.129,0.003
07/07/2022,07:01:07,0.192,0.0,0.132,0.003
07/07/2022,07:02:06,0.198,0.0,0.135,0.003
07/07/2022,07:03:07,0.200,0.0,0.139,0.004
07/07/2022,07:04:06,0.202,0.0,0.142,0.003
07/07/2022,07:05:07,0.209,0.0,0.145,0.003
07/07/2022,07:06:07,0.216,0.0,0.149,0.004
07/07/2022,07:07:06,0.220,1.0,0.153,0.004
07/07/2022,07:08:06,0.222,1.0,0.156,0.003
07/07/2022,07:09:06,0.226,1.0,0.16,0.004
07/07/2022,07:10:06,0.233,1.0,0.164,0.004
07/07/2022,07:11:08,0.242,1.0,0.168,0.004
07/07/2022,07:12:07,0.244,1.0,0.172,0.004
07/07/2022,07:13:06,0.242,1.0,0.176,0.004
07/07/2022,07:14:06,0.242,1.0,0.18,0.004
07/07/2022,07:15:06,0.247,1.0,0.184,0.004
07/07/2022,07:16:07,0.251,1.0,0.188,0.004
07/07/2022,07:17:07,0.250,1.0,0.192,0.004
07/07/2022,07:18:06,0.245,1.0,0.197,0.005
07/07/2022,07:19:07,0.249,1.0,0.201,0.004
07/07/2022,07:20:06,0.252,1.0,0.205,0.004
07/07/2022,07:21:15,0.254,1.0,0.21,0.005
07/07/2022,07:22:06,0.248,1.0,0.213,0.003
07/07/2022,07:23:07,0.250,1.0,0.217,0.004
07/07/2022,07:24:14,0.248,1.0,0.222,0.005
07/07/2022,07:25:07,0.264,1.0,0.226,0.004
07/07/2022,07:26:07,0.269,1.0,0.23,0.004
07/07/2022,07:27:06,0.265,1.0,0.235,0.005
07/07/2022,07:28:06,0.273,1.0,0.239,0.004
07/07/2022,07:29:07,0.277,1.0,0.244,0.005
07/07/2022,07:30:07,0.279,1.0,0.248,0.004
07/07/2022,07:31:04,0.291,1.0,0.253,0.005
07/07/2022,07:32:06,0.304,1.0,0.258,0.005
07/07/2022,07:33:07,0.319,1.0,0.263,0.005
07/07/2022,07:34:07,0.338,1.0,0.269,0.006
07/07/2022,07:35:16,0.348,1.0,0.275,0.006
07/07/2022,07:36:06,0.353,1.0,0.28,0.005
07/07/2022,07:37:15,0.364,1.0,0.287,0.007
07/07/2022,07:38:15,0.379,1.0,0.293,0.006
07/07/2022,07:39:06,0.382,1.0,0.299,0.006
07/07/2022,07:40:06,0.379,1.0,0.305,0.006
07/07/2022,07:41:06,0.368,1.0,0.311,0.006
07/07/2022,07:42:20,0.363,1.0,0.319,0.008
07/07/2022,07:44:07,0.369,1.0,0.33,0.011
07/07/2022,07:45:07,0.371,1.0,0.336,0.006
07/07/2022,07:46:06,0.373,1.0,0.342,0.006
07/07/2022,07:47:15,0.370,1.0,0.349,0.007
07/07/2022,07:48:06,0.369,1.0,0.354,0.005
07/07/2022,07:49:06,0.374,1.0,0.361,0.007
07/07/2022,07:50:07,0.377,1.0,0.367,0.006
07/07/2022,07:51:06,0.380,1.0,0.373,0.006
07/07/2022,07:52:07,0.389,1.0,0.379,0.006
07/07/2022,07:53:06,0.393,1.0,0.386,0.007
07/07/2022,07:54:07,0.394,1.0,0.393,0.007
07/07/2022,07:55:06,0.402,1.0,0.399,0.006
07/07/2022,07:56:07,0.412,1.0,0.406,0.007
07/07/2022,07:57:06,0.410,1.0,0.413,0.007
07/07/2022,07:58:06,0.406,1.0,0.42,0.007
07/07/2022,07:59:07,0.408,1.0,0.426,0.006
07/07/2022,08:00:06,0.417,1.0,0.433,0.007
07/07/2022,08:01:06,0.431,1.0,0.44,0.007
07/07/2022,08:02:07,0.440,1.0,0.448,0.008
07/07/2022,08:03:06,0.449,1.0,0.455,0.007
07/07/2022,08:04:15,0.457,1.0,0.464,0.009
07/07/2022,08:05:07,0.464,1.0,0.47,0.006
07/07/2022,08:06:15,0.477,1.0,0.479,0.009
07/07/2022,08:07:14,0.481,1.0,0.487,0.008
07/07/2022,08:08:06,0.482,1.0,0.494,0.007
07/07/2022,08:09:06,0.484,1.0,0.502,0.008
07/07/2022,08:10:06,0.491,1.0,0.51,0.008
07/07/2022,08:11:07,0.493,1.0,0.518,0.008
07/07/2022,08:12:07,0.491,1.0,0.527,0.009
07/07/2022,08:13:06,0.498,1.0,0.535,0.008
07/07/2022,08:14:06,0.526,1.0,0.543,0.008
07/07/2022,08:15:07,0.535,1.0,0.552,0.009
07/07/2022,08:16:06,0.536,1.0,0.561,0.009
07/07/2022,08:17:06,0.553,1.0,0.57,0.009
07/07/2022,08:18:07,0.560,1.0,0.58,0.01
07/07/2022,08:19:07,0.565,1.0,0.589,0.009
07/07/2022,08:20:07,0.573,1.0,0.598,0.009
07/07/2022,08:21:07,0.582,1.0,0.608,0.01
07/07/2022,08:22:06,0.601,1.0,0.618,0.01
07/07/2022,08:23:07,0.619,1.0,0.628,0.01
07/07/2022,08:24:06,0.631,1.0,0.638,0.01
07/07/2022,08:25:06,0.630,1.0,0.649,0.011
07/07/2022,08:26:07,0.627,1.0,0.659,0.01
07/07/2022,08:27:07,0.622,1.0,0.67,0.011
07/07/2022,08:28:07,0.626,1.0,0.68,0.01
07/07/2022,08:29:07,0.637,1.0,0.691,0.011
07/07/2022,08:30:07,0.646,1.0,0.701,0.01
07/07/2022,08:31:07,0.654,2.0,0.712,0.011
07/07/2022,08:32:07,0.665,2.0,0.724,0.012
07/07/2022,08:33:15,0.658,2.0,0.736,0.012
07/07/2022,08:34:23,0.635,1.0,0.748,0.012
07/07/2022,08:36:07,0.639,1.0,0.766,0.018
07/07/2022,08:37:06,0.639,1.0,0.777,0.011
07/07/2022,08:38:06,0.631,1.0,0.788,0.011
07/07/2022,08:39:07,0.629,1.0,0.798,0.01
07/07/2022,08:40:06,0.633,1.0,0.809,0.011
07/07/2022,08:41:06,0.631,1.0,0.819,0.01
07/07/2022,08:42:07,0.629,1.0,0.83,0.011
07/07/2022,08:43:07,0.629,1.0,0.84,0.01
07/07/2022,08:44:07,0.647,1.0,0.851,0.011
07/07/2022,08:45:07,0.669,2.0,0.862,0.011
07/07/2022,08:46:15,0.684,2.0,0.875,0.013
07/07/2022,08:48:07,0.701,2.0,0.896,0.021
07/07/2022,08:49:06,0.720,2.0,0.908,0.012
07/07/2022,08:50:07,0.738,2.0,0.92,0.012
07/07/2022,08:51:06,0.736,2.0,0.932,0.012
07/07/2022,08:52:06,0.728,2.0,0.945,0.013
07/07/2022,08:53:07,0.707,2.0,0.957,0.012
07/07/2022,08:54:06,0.718,2.0,0.968,0.011
07/07/2022,08:55:07,0.702,2.0,0.98,0.012
07/07/2022,08:56:07,0.677,2.0,0.992,0.012
07/07/2022,08:57:07,0.673,2.0,1.003,0.011
07/07/2022,08:58:07,0.677,2.0,1.014,0.011
07/07/2022,08:59:06,0.667,2.0,1.025,0.011
07/07/2022,09:00:07,0.704,2.0,1.037,0.012
07/07/2022,09:01:07,0.768,2.0,1.05,0.013
07/07/2022,09:02:14,0.785,2.0,1.064,0.014
07/07/2022,09:04:07,0.684,2.0,1.088,0.024
07/07/2022,09:05:07,0.609,1.0,1.098,0.01
07/07/2022,09:06:07,0.582,1.0,1.108,0.01
07/07/2022,09:07:07,0.619,1.0,1.118,0.01
07/07/2022,09:08:06,0.802,2.0,1.129,0.011
07/07/2022,09:09:07,1.023,2.0,1.145,0.016
07/07/2022,09:10:07,1.138,3.0,1.163,0.018
07/07/2022,09:11:07,1.160,3.0,1.182,0.019
07/07/2022,09:12:07,1.200,3.0,1.202,0.02
07/07/2022,09:13:07,1.340,3.0,1.223,0.021
07/07/2022,09:14:07,1.402,3.0,1.245,0.022
07/07/2022,09:15:06,1.605,4.0,1.268,0.023
07/07/2022,09:16:06,1.341,3.0,1.29,0.022
07/07/2022,09:17:07,1.433,3.0,1.314,0.024
07/07/2022,09:18:06,1.593,4.0,1.34,0.026
07/07/2022,09:19:06,1.601,4.0,1.366,0.026
07/07/2022,09:20:07,1.684,4.0,1.393,0.027
07/07/2022,09:21:09,1.848,4.0,1.422,0.029
07/07/2022,09:22:06,1.838,4.0,1.452,0.03
07/07/2022,09:23:07,1.606,4.0,1.481,0.029
07/07/2022,09:24:07,1.371,3.0,1.51,0.029
07/07/2022,09:25:07,1.288,3.0,1.532,0.022
07/07/2022,09:26:07,1.622,4.0,1.558,0.026
07/07/2022,09:27:07,1.699,4.0,1.587,0.029
07/07/2022,09:28:15,1.599,4.0,1.619,0.032
07/07/2022,09:29:06,1.560,4.0,1.643,0.024
07/07/2022,09:30:15,1.215,3.0,1.672,0.029
07/07/2022,09:31:06,1.178,3.0,1.689,0.017
07/07/2022,09:32:07,1.293,3.0,1.714,0.025
07/07/2022,09:33:07,1.073,2.0,1.733,0.019
07/07/2022,09:34:06,1.053,2.0,1.751,0.018
07/07/2022,09:35:07,1.089,3.0,1.769,0.018
07/07/2022,09:36:07,1.021,2.0,1.786,0.017
07/07/2022,09:37:06,0.992,2.0,1.803,0.017
07/07/2022,09:38:07,0.978,2.0,1.819,0.016
07/07/2022,09:39:06,1.010,2.0,1.836,0.017
07/07/2022,09:40:07,0.995,2.0,1.853,0.017
07/07/2022,09:41:07,0.966,2.0,1.869,0.016
07/07/2022,09:42:07,0.968,2.0,1.886,0.017
07/07/2022,09:43:07,1.000,2.0,1.902,0.016
07/07/2022,09:44:07,1.050,2.0,1.919,0.017
07/07/2022,09:45:06,1.104,3.0,1.937,0.018
07/07/2022,09:46:07,1.358,3.0,1.956,0.019
07/07/2022,09:47:07,1.147,3.0,1.976,0.02
07/07/2022,09:48:07,1.030,2.0,1.994,0.018
07/07/2022,09:49:15,0.944,2.0,2.013,0.019
07/07/2022,09:51:16,0.930,2.0,2.043,0.03
07/07/2022,09:52:14,0.979,2.0,2.059,0.016
07/07/2022,09:53:07,1.023,2.0,2.073,0.014
07/07/2022,09:54:06,1.051,2.0,2.091,0.018
07/07/2022,09:55:07,1.041,2.0,2.109,0.018
07/07/2022,09:56:07,1.029,2.0,2.125,0.016
07/07/2022,09:57:06,1.012,2.0,2.142,0.017
07/07/2022,09:58:07,0.967,2.0,2.159,0.017
07/07/2022,09:59:06,0.895,2.0,2.174,0.015
07/07/2022,10:00:07,0.808,2.0,2.189,0.015
07/07/2022,10:01:08,0.736,2.0,2.202,0.013
07/07/2022,10:02:15,0.710,2.0,2.215,0.013
07/07/2022,10:03:06,0.704,2.0,2.225,0.01
07/07/2022,10:04:07,0.675,2.0,2.237,0.012
07/07/2022,10:05:07,0.642,1.0,2.248,0.011
07/07/2022,10:06:07,0.623,1.0,2.258,0.01
07/07/2022,10:07:07,0.629,1.0,2.269,0.011
07/07/2022,10:08:15,0.629,1.0,2.28,0.011
07/07/2022,10:09:07,0.630,1.0,2.29,0.01
07/07/2022,10:10:07,0.651,1.0,2.3,0.01
07/07/2022,10:11:07,0.691,2.0,2.312,0.012
07/07/2022,10:12:07,0.719,2.0,2.323,0.011
07/07/2022,10:13:07,0.711,2.0,2.335,0.012
07/07/2022,10:14:07,0.678,2.0,2.347,0.012
07/07/2022,10:15:07,0.651,1.0,2.358,0.011
07/07/2022,10:16:07,0.647,1.0,2.369,0.011
07/07/2022,10:17:06,0.672,2.0,2.38,0.011